Regional Weather Roundup
Issued by NWS Midland/Odessa, TX

Skip options and go directly to product.
Home | Oldest Version | Previous Version | Current Version | All | Text Only | Save Text | Print | Product List | Glossary Off

Skip product version selection by date and time.   

693
ASUS44 KMAF 262310
RWRMAF
MIDLAND AREA WEATHER ROUNDUP
NATIONAL WEATHER SERVICE MIDLAND TX
600 PM CDT THU MAR 26 2015

...IN SOUTHWEST TEXAS AND SOUTHEAST NEW MEXICO...

CITY           SKY/WX    TMP DP  RH WIND       PRES   REMARKS
ALPINE         SUNNY     58  32  37 NE7       30.29F
ANDREWS        FAIR      63  20  19 NW7       30.19F
ARTESIA        SUNNY     61  19  20 CALM      30.20F
BIG SPRING     SUNNY     67  17  14 NW8       30.19F
CARLSBAD       SUNNY     64  20  18 NE3       30.19F
DRYDEN           N/A     68  33  27 N13G22    30.17F
FORT STOCKTON  SUNNY     61  29  29 N7        30.22F
GUAD PASS      SUNNY     55  24  30 VRB3      30.25F
HOBBS          SUNNY     61  14  16 VRB6      30.21F
MARFA          SUNNY     59  30  33 NE12      30.24F
MIDLAND AIRPK  SUNNY     63  24  22 NW7       30.20F
MIDLAND INTL   SUNNY     62  24  23 W5        30.19F
ODESSA         SUNNY     63  23  21 NW7G16    30.20F
PECOS          SUNNY     63  27  25 W7        30.21F
PRESIDIO       FAIR      71  36  27 SW5       30.15S
SEMINOLE       SUNNY     62  17  17 NW3       30.20F
SNYDER         SUNNY     62  22  21 N8        30.18F
WINK           SUNNY     63  17  17 VRB3      30.19F
$$
...OTHER STATIONS IN TEXAS...

CITY           SKY/WX    TMP DP  RH WIND       PRES   REMARKS
ABILENE        SUNNY     63  24  22 N17       30.16F
AMARILLO       SUNNY     64  16  15 W12G26    30.14F
AUSTIN         MOSUNNY   68  43  40 N15       30.06R
BROWNSVILLE    CLOUDY    68  58  70 N13G22    30.00R
CORPUS CHRISTI TSTM      62  53  72 N20       30.03R
DALLAS FTW     MOSUNNY   65  31  28 N20G30    30.07F
DEL RIO        SUNNY     73  37  27 NW15G23   30.10F
EL PASO        SUNNY     67  25  20 VRB3      30.19F
HOUSTON INT    PTSUNNY   66  49  54 N14G25    30.01R
LUBBOCK        MOSUNNY   65  18  16 NW10G21   30.16F
SAN ANGELO     SUNNY     67  24  19 N14       30.15F
SAN ANTONIO    MOSUNNY   70  43  37 N14G22    30.06F
WACO           SUNNY     65  35  33 N21G29    30.07R
WICHITA FALLS  NOT AVBL
$$
...OTHER LOCATIONS IN NEW MEXICO...

CITY           SKY/WX    TMP DP  RH WIND       PRES   REMARKS
ALAMAGORDO     SUNNY     66  19  16 S5        30.19F
ALBUQUERQUE    MOSUNNY   62  18  18 SW6       30.22F
CANNON AFB     NOT AVBL
CLOVIS         SUNNY     61  19  20 W10G23    30.17F
HOLLOMAN AFB   SUNNY     66  20  17 CALM      30.17F
ROSWELL        SUNNY     64  18  17 CALM      30.19F
RUIDOSO        SUNNY     57  16  19 N10G20    30.26S
SANTA FE       SUNNY     60  14  16 SW12G20   30.21F
TRUTH OR CONSE SUNNY     65  13  13 VRB3      30.19F
TUCUMCARI      SUNNY     65  14  14 MISG      30.14F
$$

USA.gov is the U.S. government's official web portal to all federal, state and local government web resources and services.